Weather History for LTBA - October, 2012

Change the Weather History Date:

Wednesday, October 10, 2012

  Actual Average Record
Temperature  
Mean Temperature 64 °F -  
Max Temperature 75 °F 63 °F 75 °F (2001)
Min Temperature 54 °F 52 °F 50 °F (2010)
Growing Degree Days 14 (Base 50)    
Moisture  
Dew Point 48 °F    
Average Humidity 53    
Maximum Humidity 77    
Minimum Humidity 27    
Precipitation  
Precipitation 0.00 in - - ()
Sea Level Pressure  
Sea Level Pressure 29.89 in    
Wind  
Wind Speed 6 mph ()    
Max Wind Speed 13 mph    
Max Gust Speed -    
Visibility 6.2 miles    
Events      
Averages and records for this station are not official NWS values.
T = Trace of Precipitation, MM = Missing Value Source: Averaged Metar Reports

Daily Weather History Graph

Daily Weather History Graph

Search for Another Location

Airport or City:

Trip Planner

Search our weather history database for the weather conditions in past years. The results will help you decide how hot, cold, wet, or windy it might be!

Date:

Astronomy

Oct. 10, 2012 Rise Set
Actual Time 7:10 AM EEST 6:31 PM EEST
Civil Twilight 6:43 AM EEST 6:59 PM EEST
Nautical Twilight 6:11 AM EEST 7:31 PM EEST
Astronomical Twilight 5:39 AM EEST 8:02 PM EEST
Moon 1:24 AM EEST (10/10) 3:25 PM EEST (10/10)
Length of Visible Light 12h 15m
Length of Day
11h 20m
Waning Crescent, 30% of the Moon is Illuminated
Oct 10
Waning Crescent
Oct 15
New
Oct 22
First Quarter
Oct 29
Full
Nov 7
Last Quarter

Hourly Weather History & Observations

Time (EEST) Temp. Dew Point Humidity Pressure Visibility Wind Dir Wind Speed Gust Speed Precip Events Conditions
12:20 AM 60.8 °F 46.4 °F 59% 29.92 in - ENE 5.8 mph - N/A   Clear
12:50 AM 60.8 °F 46.4 °F 59% 29.92 in - East 6.9 mph - N/A   Clear
1:20 AM 60.8 °F 46.4 °F 59% 29.92 in - ENE 6.9 mph - N/A   Clear
1:50 AM 60.8 °F 48.2 °F 63% 29.92 in - ENE 6.9 mph - N/A   Clear
2:20 AM 60.8 °F 48.2 °F 63% 29.92 in - ENE 5.8 mph - N/A   Clear
2:50 AM 60.8 °F 48.2 °F 63% 29.89 in - ENE 5.8 mph - N/A   Clear
3:00 AM 61 °F 48 °F 52% 29.91 in 6 mi ENE 5.8 mph - -  
3:20 AM 60.8 °F 48.2 °F 63% 29.89 in - NE 5.8 mph - N/A   Clear
3:50 AM 60.8 °F 48.2 °F 63% 29.89 in - ENE 4.6 mph - N/A   Clear
4:20 AM 60.8 °F 48.2 °F 63% 29.89 in - NE 4.6 mph - N/A   Clear
4:50 AM 60.8 °F 48.2 °F 63% 29.89 in - NE 4.6 mph - N/A   Clear
5:20 AM 57.2 °F 46.4 °F 67% 29.89 in - NNE 3.5 mph - N/A   Clear
5:50 AM 55.4 °F 46.4 °F 72% 29.89 in - NNE 3.5 mph - N/A   Clear
6:20 AM 59.0 °F 48.2 °F 67% 29.89 in - NNE 3.5 mph - N/A   Clear
6:50 AM 55.4 °F 48.2 °F 77% 29.89 in - North 3.5 mph - N/A   Clear
7:20 AM 59.0 °F 48.2 °F 67% 29.89 in - NNE 3.5 mph - N/A   Clear
7:50 AM 55.4 °F 48.2 °F 77% 29.89 in - North 4.6 mph - N/A   Clear
8:20 AM 62.6 °F 50.0 °F 63% 29.89 in - Variable 4.6 mph - N/A   Clear
8:50 AM 64.4 °F 48.2 °F 56% 29.92 in - Variable 4.6 mph - N/A   Clear
9:00 AM 65 °F 49 °F 45% 29.91 in 6 mi ENE 4.6 mph - -  
9:20 AM 66.2 °F 48.2 °F 52% 29.92 in - Variable 4.6 mph - N/A   Clear
9:50 AM 68.0 °F 48.2 °F 49% 29.92 in - ESE 6.9 mph - N/A   Clear
10:20 AM 66.2 °F 48.2 °F 52% 29.92 in - East 8.1 mph - N/A   Clear
10:50 AM 68.0 °F 48.2 °F 49% 29.92 in 6.2 mi East 9.2 mph - N/A   Partly Cloudy
11:20 AM 68.0 °F 50.0 °F 52% 29.92 in 6.2 mi ESE 9.2 mph - N/A   Partly Cloudy
11:50 AM 68.0 °F 46.4 °F 46% 29.92 in 6.2 mi ESE 8.1 mph - N/A   Partly Cloudy
12:20 PM 68.0 °F 46.4 °F 46% 29.89 in 6.2 mi East 9.2 mph - N/A   Scattered Clouds
12:50 PM 69.8 °F 44.6 °F 40% 29.89 in 6.2 mi ESE 9.2 mph - N/A   Scattered Clouds
1:20 PM 69.8 °F 44.6 °F 40% 29.89 in 6.2 mi ESE 9.2 mph - N/A   Scattered Clouds
1:50 PM 69.8 °F 42.8 °F 38% 29.89 in 6.2 mi ESE 9.2 mph - N/A   Scattered Clouds
2:20 PM 71.6 °F 44.6 °F 38% 29.89 in 6.2 mi ESE 8.1 mph - N/A   Scattered Clouds
2:50 PM 71.6 °F 44.6 °F 38% 29.89 in 6.2 mi ESE 8.1 mph - N/A   Scattered Clouds
3:00 PM 72 °F 45 °F 27% 29.88 in 6 mi ESE 8.1 mph - -   Partly Cloudy
3:20 PM 73.4 °F 44.6 °F 36% 29.86 in 6.2 mi ENE 8.1 mph - N/A   Scattered Clouds
3:50 PM 73.4 °F 44.6 °F 36% 29.86 in 6.2 mi Variable 6.9 mph - N/A   Scattered Clouds
4:20 PM 73.4 °F 46.4 °F 38% 29.86 in 6.2 mi ENE 11.5 mph - N/A   Scattered Clouds
4:50 PM 71.6 °F 44.6 °F 38% 29.86 in 6.2 mi NE 9.2 mph - N/A   Scattered Clouds
5:20 PM 69.8 °F 41.0 °F 35% 29.86 in 6.2 mi NNE 11.5 mph - N/A   Scattered Clouds
5:50 PM 68.0 °F 48.2 °F 49% 29.86 in 6.2 mi NNE 12.7 mph - N/A   Scattered Clouds
6:20 PM 68.0 °F 48.2 °F 49% 29.86 in 6.2 mi NNE 12.7 mph - N/A   Scattered Clouds
6:50 PM 66.2 °F 50.0 °F 56% 29.86 in 6.2 mi NNE 10.4 mph - N/A   Scattered Clouds
7:20 PM 66.2 °F 48.2 °F 52% 29.86 in 6.2 mi NE 11.5 mph - N/A   Scattered Clouds
7:50 PM 68.0 °F 50.0 °F 52% 29.89 in 6.2 mi NE 8.1 mph - N/A   Scattered Clouds
8:20 PM 66.2 °F 50.0 °F 56% 29.89 in 6.2 mi NE 9.2 mph - N/A   Scattered Clouds
8:50 PM 68.0 °F 50.0 °F 52% 29.89 in 6.2 mi ENE 9.2 mph - N/A   Scattered Clouds
9:00 PM 67 °F 51 °F 46% 29.89 in 6 mi ENE 9.2 mph - -   Partly Cloudy
9:20 PM 66.2 °F 51.8 °F 60% 29.89 in 6.2 mi ENE 8.1 mph - N/A   Scattered Clouds
9:50 PM 66.2 °F 50.0 °F 56% 29.89 in 6.2 mi Variable 6.9 mph - N/A   Scattered Clouds
10:20 PM 64.4 °F 50.0 °F 59% 29.89 in 6.2 mi NE 9.2 mph - N/A   Scattered Clouds
10:50 PM 64.4 °F 50.0 °F 59% 29.89 in 6.2 mi NE 6.9 mph - N/A   Scattered Clouds
11:20 PM 64.4 °F 50.0 °F 59% 29.89 in 6.2 mi NE 6.9 mph - N/A   Scattered Clouds
11:50 PM 64.4 °F 50.0 °F 59% 29.89 in 6.2 mi NE 5.8 mph - N/A   Scattered Clouds